Weather History for Crestview, FL

Change the Weather History Date:

Wednesday, February 20, 2013

  Actual Average Record
Temperature  
Mean Temperature 46 °F -  
Max Temperature 60 °F 69 °F 78 °F (1949)
Min Temperature 32 °F 43 °F 27 °F (2009)
Degree Days  
Heating Degree Days 19    
Moisture  
Dew Point 26 °F    
Average Humidity 55    
Maximum Humidity 85    
Minimum Humidity 22    
Precipitation  
Precipitation 0.00 in - - ()
Sea Level Pressure  
Sea Level Pressure 30.19 in    
Wind  
Wind Speed 3 mph (NNE)    
Max Wind Speed 8 mph    
Max Gust Speed 16 mph    
Visibility 10 miles    
Events      
Averages and records for this station are not official NWS values.
T = Trace of Precipitation, MM = Missing Value Source: NWS Daily Summary

Daily Weather History Graph

Daily Weather History Graph

Search for Another Location

Airport:

Trip Planner

Search our weather history database for the weather conditions in past years. The results will help you decide how hot, cold, wet, or windy it might be!

Date:

Astronomy

Feb. 20, 2013 Rise Set
Actual Time 6:21 AM CST 5:38 PM CST
Civil Twilight 5:57 AM CST 6:02 PM CST
Nautical Twilight 5:29 AM CST 6:30 PM CST
Astronomical Twilight 5:01 AM CST 6:58 PM CST
Moon 1:10 PM CST (2/20) 2:29 AM CST (2/20)
Length of Visible Light 12h 05m
Length of Day
11h 16m
Waxing Gibbous, 76% of the Moon is Illuminated
Feb 20
Waxing Gibbous
Feb 25
Full
Mar 4
Last Quarter
Mar 11
New
Mar 19
First Quarter

Hourly Weather History & Observations

Time (CST) Temp. Windchill Dew Point Humidity Pressure Visibility Wind Dir Wind Speed Gust Speed Precip Events Conditions
12:53 AM 34.0 °F - 28.9 °F 82% 30.21 in 10.0 mi Calm Calm - N/A   Clear
1:53 AM 34.0 °F - 30.0 °F 85% 30.21 in 10.0 mi Calm Calm - N/A   Clear
2:53 AM 35.1 °F 31.0 °F 28.9 °F 78% 30.22 in 10.0 mi NNW 4.6 mph - N/A   Clear
3:53 AM 37.9 °F 34.4 °F 26.1 °F 62% 30.21 in 10.0 mi North 4.6 mph - N/A   Clear
4:53 AM 37.0 °F 33.3 °F 26.1 °F 65% 30.22 in 10.0 mi NNW 4.6 mph - N/A   Clear
5:53 AM 32.0 °F - 26.1 °F 79% 30.23 in 10.0 mi Calm Calm - N/A   Clear
7:53 AM 42.1 °F 37.1 °F 25.0 °F 51% 30.23 in 10.0 mi NE 8.1 mph - N/A   Clear
8:53 AM 46.9 °F - 21.9 °F 37% 30.24 in 10.0 mi NE 6.9 mph 16.1 mph N/A   Clear
9:53 AM 48.9 °F - 19.0 °F 31% 30.25 in 10.0 mi ENE 8.1 mph - N/A   Clear
10:53 AM 51.1 °F - 19.0 °F 28% 30.26 in 10.0 mi North 4.6 mph - N/A   Clear
11:53 AM 54.0 °F - 19.9 °F 26% 30.22 in 10.0 mi Variable 6.9 mph - N/A   Clear
12:53 PM 57.0 °F - 19.0 °F 23% 30.19 in 10.0 mi Variable 3.5 mph - N/A   Clear
1:53 PM 57.9 °F - 19.0 °F 22% 30.16 in 10.0 mi NNE 4.6 mph - N/A   Clear
2:53 PM 60.1 °F - 21.0 °F 22% 30.14 in 10.0 mi Variable 4.6 mph - N/A   Clear
3:53 PM 59.0 °F - 21.9 °F 24% 30.15 in 10.0 mi Calm Calm - N/A   Clear
4:53 PM 59.0 °F - 25.0 °F 27% 30.14 in 10.0 mi Calm Calm - N/A   Clear
5:53 PM 50.0 °F - 35.1 °F 57% 30.14 in 10.0 mi Calm Calm - N/A   Clear
6:53 PM 44.1 °F - 36.0 °F 73% 30.15 in 10.0 mi Calm Calm - N/A   Clear
7:53 PM 42.1 °F - 35.1 °F 76% 30.15 in 10.0 mi Calm Calm - N/A   Clear
8:53 PM 39.0 °F - 34.0 °F 82% 30.16 in 10.0 mi Calm Calm - N/A   Clear
10:53 PM 35.1 °F - 30.9 °F 85% 30.15 in 10.0 mi Calm Calm - N/A   Clear
11:53 PM 35.1 °F - 30.9 °F 85% 30.12 in 10.0 mi Calm Calm - N/A   Clear